2023/12/18 00:00:00,19.4,-3.3
2023/12/18 00:10:00,19.2,-3.2
2023/12/18 00:20:00,19.3,-2.9
2023/12/18 00:30:00,19.1,-3.0
2023/12/18 00:40:00,18.8,-3.1
2023/12/18 00:50:00,18.5,-2.9
2023/12/18 01:00:00,18.4,-2.8
2023/12/18 01:10:00,18.2,-2.8
2023/12/18 01:20:00,18.1,-2.8
2023/12/18 01:30:00,18.0,-2.8
2023/12/18 01:40:00,17.9,-2.9
2023/12/18 01:50:00,17.9,-2.9
2023/12/18 02:00:00,17.7,-2.9
2023/12/18 02:10:00,17.6,-2.5
2023/12/18 02:20:00,17.5,-2.3
2023/12/18 02:30:00,17.4,-2.5
2023/12/18 02:40:00,17.5,-2.7
2023/12/18 02:50:00,17.3,-2.7
2023/12/18 03:00:00,17.2,-2.6
2023/12/18 03:10:00,17.0,-2.7
2023/12/18 03:20:00,16.9,-2.5
2023/12/18 03:30:00,16.8,-2.5
2023/12/18 03:40:00,16.9,-2.6
2023/12/18 03:50:00,17.0,-2.6
2023/12/18 04:00:00,17.1,-2.4
2023/12/18 04:10:00,17.1,-2.2
2023/12/18 04:20:00,17.2,-2.4
2023/12/18 04:30:00,17.0,-2.1
2023/12/18 04:40:00,16.9,-2.4
2023/12/18 04:50:00,16.8,-2.5
2023/12/18 05:00:00,16.6,-2.3
2023/12/18 05:10:00,16.6,-2.5
2023/12/18 05:20:00,16.8,-2.3
2023/12/18 05:30:00,16.6,-2.5
2023/12/18 05:40:00,16.3,-2.4
2023/12/18 05:50:00,16.1,-2.5
2023/12/18 06:00:00,16.0,-2.2
2023/12/18 06:10:00,16.0,-2.2
2023/12/18 06:20:00,16.0,-2.4
2023/12/18 06:30:00,15.9,-2.4
2023/12/18 06:40:00,15.6,-2.2
2023/12/18 06:50:00,15.5,-2.2
2023/12/18 07:00:00,15.4,-2.3
2023/12/18 07:10:00,15.3,-2.6
2023/12/18 07:20:00,15.3,-2.6
2023/12/18 07:30:00,15.2,-2.4
2023/12/18 07:40:00,15.1,-2.3
2023/12/18 07:50:00,15.0,-2.4
2023/12/18 08:00:00,15.0,-2.0
2023/12/18 08:10:00,15.0,-1.3
2023/12/18 08:20:00,14.8,-1.2
2023/12/18 08:30:00,14.7,-1.4
2023/12/18 08:40:00,14.6,-1.1
2023/12/18 08:50:00,14.6,-1.1
2023/12/18 09:00:00,14.5,-0.5
2023/12/18 09:10:00,14.4,-0.4
2023/12/18 09:20:00,14.3,-0.4
2023/12/18 09:30:00,14.0,-0.4
2023/12/18 09:40:00,13.7,-0.5
2023/12/18 09:50:00,13.8, 0.3
2023/12/18 10:00:00,13.8, 0.5
2023/12/18 10:10:00,13.8, 0.6
2023/12/18 10:20:00,13.7, 0.3
2023/12/18 10:30:00,13.6, 0.8
2023/12/18 10:40:00,13.5, 1.0
2023/12/18 10:50:00,13.3, 0.5
2023/12/18 11:00:00,13.1, 0.2
2023/12/18 11:10:00,12.9,-0.1
2023/12/18 11:20:00,12.8,-0.2
2023/12/18 11:30:00,12.8, 0.9
2023/12/18 11:40:00,12.9, 1.6
2023/12/18 11:50:00,12.8, 1.4
2023/12/18 12:00:00,12.6, 1.3
2023/12/18 12:10:00,12.4, 0.8
2023/12/18 12:20:00,12.4, 1.4
2023/12/18 12:30:00,12.3, 1.0
2023/12/18 12:40:00,12.1, 1.4
2023/12/18 12:50:00,12.0, 0.8
2023/12/18 13:00:00,11.7, 1.7
2023/12/18 13:10:00,11.6, 1.1
2023/12/18 13:20:00,11.4, 0.9
2023/12/18 13:30:00,11.1, 0.9
2023/12/18 13:40:00,11.1, 0.9
2023/12/18 13:50:00,10.9, 1.8
2023/12/18 14:00:00,10.7, 0.6
2023/12/18 14:10:00,10.4, 0.8
2023/12/18 14:20:00,10.3, 0.9
2023/12/18 14:30:00,10.3, 1.2
2023/12/18 14:40:00,10.2, 0.8
2023/12/18 14:50:00,10.2, 0.6
2023/12/18 15:00:00,10.0, 0.6
2023/12/18 15:10:00, 9.8, 0.7
2023/12/18 15:20:00, 9.8, 0.6
2023/12/18 15:30:00, 9.8, 0.4
2023/12/18 15:40:00, 9.7, 0.1
2023/12/18 15:50:00, 9.6, 0.0
2023/12/18 16:00:00, 9.5,-0.2
2023/12/18 16:10:00, 9.3, 0.0
2023/12/18 16:20:00, 9.2,-0.2
2023/12/18 16:30:00, 9.2,-0.2
2023/12/18 16:40:00, 9.1,-0.4
2023/12/18 16:50:00, 8.9,-0.4
2023/12/18 17:00:00, 8.7,-0.5
2023/12/18 17:10:00, 8.6,-0.3
2023/12/18 17:20:00, 8.5,-0.5
2023/12/18 17:30:00, 8.5,-0.4
2023/12/18 17:40:00, 8.6,-0.5
2023/12/18 17:50:00, 8.5,-0.6
2023/12/18 18:00:00, 8.5,-0.6
2023/12/18 18:10:00, 8.5,-0.5
2023/12/18 18:20:00, 8.5,-0.2
2023/12/18 18:30:00, 8.4,-0.6
2023/12/18 18:40:00, 8.4,-0.6
2023/12/18 18:50:00, 8.4,-0.6
2023/12/18 19:00:00, 8.2,-0.7
2023/12/18 19:10:00, 8.2,-1.0
2023/12/18 19:20:00, 8.2,-0.9
2023/12/18 19:30:00, 8.1,-0.4
2023/12/18 19:40:00, 8.0,-0.7
2023/12/18 19:50:00, 7.9,-1.0
2023/12/18 20:00:00, 7.8,-0.6
2023/12/18 20:10:00, 7.8,-0.7
2023/12/18 20:20:00, 7.8,-0.7
2023/12/18 20:30:00, 7.7,-0.7
2023/12/18 20:40:00, 7.6,-0.9
2023/12/18 20:50:00, 7.5,-0.6
2023/12/18 21:00:00, 7.4,-0.5
2023/12/18 21:10:00, 7.3,-0.8
2023/12/18 21:20:00, 7.3,-0.8
2023/12/18 21:30:00, 7.2,-0.6
2023/12/18 21:40:00, 7.1,-0.8
2023/12/18 21:50:00, 7.0,-0.9
2023/12/18 22:00:00, 6.9,-0.8
2023/12/18 22:10:00, 6.8,-0.5
2023/12/18 22:20:00, 6.7,-0.7
2023/12/18 22:30:00, 6.7,-0.8
2023/12/18 22:40:00, 6.6,-0.8
2023/12/18 22:50:00, 6.5,-0.7
2023/12/18 23:00:00, 6.5,-1.1
2023/12/18 23:10:00, 6.5,-0.7
2023/12/18 23:20:00, 6.5,-0.8
2023/12/18 23:30:00, 6.4,-0.8
2023/12/18 23:40:00, 6.3,-0.7
2023/12/18 23:50:00, 6.3,-0.8
